Location: Bois de la Silve
(44.4667°N, 6.7833°E)
Time: 20:44:15
(UTC+00:00)

Cosmos 2082 Rocket - Pass Details

Date: 14 July 2020
Orbit: 834 x 853 km, 71.0° (Epoch: 14 August)

Event Time Altitude Azimuth Distance (km) Brightness Sun altitude
Exits shadow 02:22:47 20° 217° (SW) 1,853 3.3 -14.0°
Maximum altitude 02:26:45 70° 297° (WNW) 909 2.3 -13.6°
Drops below altitude 10° 02:32:28 10° 21° (NNE) 2,487 5.9 -12.9°
Sets 02:34:56 0° 24° (NNE) 3,425 6.9 -12.6°
